Rexburg, ID

4:11 AM MDT on July 28, 2017 (GMT -0600)
Rexburg-Madison County

Weather History for KRXE - September, 2014

Change the Weather History Date:

Thursday, September 4, 2014

  Actual Average Record
Temperature  
Mean Temperature 51 °F 60 °F  
Max Temperature 69 °F 77 °F 91 °F (1998)
Min Temperature 33 °F 44 °F 33 °F (2004)
Degree Days  
Heating Degree Days 14 5  
Month to date heating degree days 37 19  
Since 1 July heating degree days 111 92  
Cooling Degree Days 0 1  
Month to date cooling degree days 0 4  
Year to date cooling degree days 222 206  
Growing Degree Days 1 (Base 50)    
Moisture  
Dew Point 30 °F    
Average Humidity 47    
Maximum Humidity 75    
Minimum Humidity 19    
Precipitation  
Precipitation 0.00 in 0.03 in 0.23 in (2007)
Month to date precipitation 0.00 0.12  
Year to date precipitation 11.27 9.04  
Sea Level Pressure  
Sea Level Pressure 30.07 in    
Wind  
Wind Speed 5 mph (NE)    
Max Wind Speed 12 mph    
Max Gust Speed 15 mph    
Visibility 10 miles    
Events      
T = Trace of Precipitation, MM = Missing Value Source: NWS Daily Summary

Daily Weather History Graph

Daily Weather History Graph

Search for Another Location

Airport or City:

Trip Planner

Search our weather history database for the weather conditions in past years. The results will help you decide how hot, cold, wet, or windy it might be!

Date:

Astronomy

Sep. 04, 2014 Rise Set
Actual Time 6:54 AM MDT 7:57 PM MDT
Civil Twilight 6:24 AM MDT 8:26 PM MDT
Nautical Twilight 5:49 AM MDT 9:01 PM MDT
Astronomical Twilight 5:12 AM MDT 9:38 PM MDT
Moon 4:44 PM MDT (9/4) 1:42 AM MDT (9/4)
Length of Visible Light 14h 02m
Length of Day
13h 03m
Waxing Gibbous, 75% of the Moon is Illuminated
Sep 4
Waxing Gibbous
Sep 8
Full
Sep 15
Last Quarter
Sep 24
New
Oct 1
First Quarter

Hourly Weather History & Observations

Time (MDT) Temp. Windchill Dew Point Humidity Pressure Visibility Wind Dir Wind Speed Gust Speed Precip Events Conditions
12:53 AM 42.1 °F 40.2 °F 28.9 °F 60% 29.95 in 10.0 mi NNE 3.5 mph - N/A   Clear
1:53 AM 39.0 °F 36.8 °F 28.9 °F 67% 29.98 in 10.0 mi North 3.5 mph - N/A   Clear
2:53 AM 37.0 °F 31.6 °F 28.9 °F 73% 30.00 in 10.0 mi East 6.9 mph - N/A   Clear
3:53 AM 37.9 °F 33.5 °F 28.0 °F 68% 30.02 in 10.0 mi East 5.8 mph - N/A   Clear
4:53 AM 36.0 °F 31.1 °F 28.0 °F 73% 30.04 in 10.0 mi NNE 5.8 mph - N/A   Clear
6:53 AM 34.0 °F 31.0 °F 27.0 °F 75% 30.07 in 10.0 mi NE 3.5 mph - N/A   Clear
7:53 AM 37.0 °F 34.5 °F 28.9 °F 73% 30.10 in 10.0 mi NNE 3.5 mph - N/A   Clear
8:53 AM 46.0 °F 42.5 °F 33.1 °F 61% 30.10 in 10.0 mi ENE 6.9 mph - N/A   Clear
9:53 AM 51.1 °F - 34.0 °F 52% 30.10 in 10.0 mi Variable 6.9 mph - N/A   Clear
10:53 AM 57.9 °F - 34.0 °F 41% 30.09 in 10.0 mi NNE 8.1 mph - N/A   Clear
11:53 AM 60.1 °F - 30.9 °F 33% 30.09 in 10.0 mi NNE 10.4 mph - N/A   Clear
12:53 PM 64.0 °F - 30.0 °F 28% 30.09 in 10.0 mi NNE 6.9 mph - N/A   Clear
1:53 PM 64.9 °F - 28.0 °F 25% 30.09 in 10.0 mi Variable 6.9 mph - N/A   Clear
2:53 PM 66.9 °F - 27.0 °F 22% 30.08 in 10.0 mi Variable 4.6 mph - N/A   Clear
3:53 PM 66.9 °F - 25.0 °F 21% 30.06 in 10.0 mi Variable 5.8 mph - N/A   Clear
4:53 PM 68.0 °F - 25.0 °F 20% 30.06 in 10.0 mi Calm Calm - N/A   Clear
5:53 PM 66.9 °F - 23.0 °F 19% 30.06 in 10.0 mi NNW 3.5 mph - N/A   Clear
6:53 PM 66.9 °F - 23.0 °F 19% 30.06 in 10.0 mi North 3.5 mph - N/A   Clear
7:53 PM 62.1 °F - 33.1 °F 34% 30.07 in 10.0 mi Calm Calm - N/A   Clear
8:53 PM 55.0 °F - 37.0 °F 51% 30.08 in 10.0 mi Calm Calm - N/A   Clear
9:53 PM 50.0 °F - 35.1 °F 57% 30.10 in 10.0 mi NE 5.8 mph - N/A   Clear
10:53 PM 46.0 °F 42.5 °F 32.0 °F 58% 30.10 in 10.0 mi ENE 6.9 mph - N/A   Clear
11:53 PM 43.0 °F 38.8 °F 33.1 °F 68% 30.11 in 10.0 mi ENE 6.9 mph - N/A   Clear